This is the latest recevied weather packets stored in our database for station/object KK4XZ. If no packets are shown the sender has not sent any weather packets the latest 10 day(s).
| Time | Temp. | Humidity | Pressure | Rain* | Wind** | Luminosity | Snow |
|---|---|---|---|---|---|---|---|
| 1777313736 | 18.33° C | 62% | 1021.9 hPa | 0 mm | - | - | - |
| 1777313131 | 17.78° C | 65% | 1022 hPa | 0 mm | - | - | - |
| 1777312526 | 16.67° C | 66% | 1022 hPa | 0 mm | - | - | - |
| 1777311921 | 16.11° C | 68% | 1022 hPa | 0 mm | - | - | - |
| 1777311316 | 15.56° C | 71% | 1022.2 hPa | 0 mm | - | - | - |
| 1777310732 | 15° C | 72% | 1022.4 hPa | 0 mm | - | - | - |
| 1777310127 | 15° C | 73% | 1022.3 hPa | 0 mm | - | - | - |
| 1777309522 | 14.44° C | 74% | 1022.4 hPa | 0 mm | - | - | - |
| 1777308917 | 14.44° C | 73% | 1022.5 hPa | 0 mm | - | - | - |
| 1777308333 | 13.89° C | 76% | 1022.6 hPa | 0 mm | - | - | - |
| 1777307728 | 13.89° C | 76% | 1022.5 hPa | 0 mm | - | - | - |
| 1777307123 | 13.89° C | 75% | 1022.4 hPa | 0 mm | - | - | - |
| 1777306518 | 13.89° C | 75% | 1022.5 hPa | 0 mm | - | - | - |
| 1777305934 | 13.89° C | 75% | 1022.4 hPa | 0 mm | - | - | - |
| 1777305329 | 13.89° C | 77% | 1022.5 hPa | 0 mm | - | - | - |
| 1777304724 | 13.33° C | 78% | 1022.6 hPa | 0 mm | - | - | - |
| 1777304119 | 13.33° C | 78% | 1022.6 hPa | 0 mm | - | - | - |
| 1777303534 | 13.33° C | 77% | 1022.7 hPa | 0 mm | - | - | - |
| 1777302929 | 13.33° C | 79% | 1022.8 hPa | 0 mm | - | - | - |
| 1777302324 | 12.78° C | 80% | 1023 hPa | 0 mm | - | - | - |
| 1777301720 | 12.78° C | 80% | 1022.9 hPa | 0 mm | - | - | - |
| 1777301135 | 12.78° C | 80% | 1022.7 hPa | 0 mm | - | - | - |
| 1777300530 | 12.22° C | 81% | 1022.6 hPa | 0 mm | - | - | - |
| 1777299925 | 12.22° C | 82% | 1022.6 hPa | 0 mm | - | - | - |
| 1777299320 | 12.22° C | 82% | 1022.8 hPa | 0 mm | - | - | - |
* Rain latest hour (hover to see other rain measurements)
** Current wind speed in m/s (hover to see current wind gust speed)